Location: Ipswich
(52.0579°N, 1.1528°E)
Time: 09:45:59
(UTC+01:00)

ISS - Pass Details

Date: 21 May 2026
Orbit: 414 x 424 km, 51.6° (Epoch: 8 May)

Event Time Altitude Azimuth Distance (km) Brightness Sun altitude
Rises 22:24:06 0° 282° (WNW) 2,355 0.8 -10.8°
Reaches altitude 10° 22:26:30 10° 266° (W) 1,490 -0.5 -11.0°
Maximum altitude 22:29:07 22° 214° (SW) 973 -2.1 -11.2°
Enters shadow 22:30:45 16° 175° (S) 1,197 -2.0 -11.3°
